SCP
-0 -0 -0 -0 -0 -0 -0 -0 -0 -0 -0 -0 -0 -0 -0 -0 -0 -0 -0 -0 0 -1 0 0 -1 -0 0 0 0 0 0 0 -0 0 0 0 0 -0 -0 -0 -0 -0 -0 -0 -0
-0 -0 -0 -0 -0 -0 -0 -0 -0 -0 -0 -0 -0 -0 -0 -0 -0 -0 -0 -0 -1 -1 -0 -0 -0 -0 0 0 0 0 0 0 -0 0 0 0 0 0 0 0 0 0 -0 -0 -0
-0 -0 -0 0 -0 -0 -0 -0 -0 -0 -0 -0 -0 -0 -0 -0 -0 -0 0 -0 -1 -1 -0 -0 0 0 -0 0 -0 -0 -0 0 0 0 0 0 0 0 0 0 0 -0 -0 -0 -0
-0 -0 -0 -0 -0 -0 -0 -0 -0 -0 -0 -0 -0 -0 -0 0 -0 0 0 -0 -0 -0 -0 -0 -0 0 0 -0 -0 -0 0 -0 -0 0 0 0 0 0 0 0 0 -0 -0 -0 -0
-0 -0 -0 -0 0 0 0 -0 -0 -0 -0 -0 -0 -0 -0 0 -0 0 -0 0 0 -0 -0 -0 -0 -0 -0 -0 0 0 0 -0 -0 0 0 0 -0 0 0 0 -0 -0 -0 -0 -0
0 0 0 0 0 0 0 0 -0 -0 -0 -0 0 -0 0 -0 -0 -0 0 0 -0 -0 -0 -0 -0 -0 -0 0 -0 -0 0 0 -0 0 0 0 -0 0 0 0 -0 -0 -0 -0 -0
0 0 0 0 0 0 0 0 -0 -0 -0 0 0 0 0 0 0 0 0 -0 -0 0 -0 -0 -0 0 -0 0 -0 -0 -1 -0 -0 0 -0 -0 0 -0 0 0 0 -0 -0 -0 -0
-0 -0 0 0 0 0 0 0 0 -0 0 0 0 0 0 0 0 0 -0 -0 -0 0 -0 -0 -0 -0 -0 0 -0 -0 -0 0 0 0 -0 -0 -0 0 0 0 0 -0 -0 -0 -0
-0 -0 -0 -0 0 0 0 0 0 0 0 0 0 0 0 0 0 0 -0 0 -0 -0 -0 0 -0 -0 -0 -0 0 0 0 0 0 -0 -0 0 0 0 0 0 0 -0 -0 -0 -0
-0 -0 -0 -0 -0 -0 -0 -0 -0 0 0 0 0 0 0 -0 0 0 0 0 -0 0 -0 -0 -0 -0 -0 -0 1 0 0 0 -0 0 0 0 0 -0 -0 0 0 -0 -0 -0 -0
-0 -0 -0 -0 -0 -0 -0 -0 0 0 -0 0 0 -0 0 0 0 0 0 0 -0 -0 0 0 -0 0 -0 -0 -0 -0 -0 -0 -0 0 0 0 0 0 -0 0 0 0 0 -0 -0
-0 -0 -0 -0 -0 -0 0 0 0 0 0 -0 0 0 0 0 0 0 0 0 0 0 -0 0 0 -0 -0 -0 -0 0 -0 -0 0 0 0 0 0 -0 0 -0 -0 -0 0 0 -0
-0 -0 -0 -0 -0 -0 -0 0 -0 0 -0 -0 0 0 0 0 0 -0 0 0 -0 -0 0 -0 -0 -0 0 -0 -0 0 0 -0 0 0 -0 0 0 0 0 0 0 -0 0 0 0
-0 -0 -0 -0 0 -0 0 0 -0 -0 -0 -0 0 0 0 0 0 -0 0 -0 0 -0 -0 0 -0 -0 -0 0 0 0 -0 -0 0 0 0 0 0 0 0 0 0 -0 -0 -0 -0
-0 -0 -0 0 -0 -0 0 -0 -0 -0 0 0 -0 0 0 -0 0 0 0 0 0 -0 0 0 0 -0 0 0 0 0 0 -0 -0 0 -0 -0 -0 0 0 -0 0 0 -0 -0 -0
-0 -0 -0 0 0 -0 -0 -0 -0 -0 0 0 0 0 -0 -0 0 0 0 0 0 0 0 -0 -0 0 0 0 0 0 0 0 0 0 0 -0 -0 0 1 0 0 0 0 0 0
-0 -0 0 0 0 -0 -0 -0 -0 -0 0 0 0 -0 -0 0 0 0 -0 0 -0 0 -0 0 0 0 0 0 0 0 0 0 0 0 0 -0 -0 0 0 -0 -0 -0 0 0 0
-0 -0 0 0 -0 -0 -0 -0 -0 -0 0 0 0 -0 0 -0 0 0 0 -0 -0 0 -0 0 0 0 0 0 0 -0 -0 0 0 0 -0 -0 0 0 0 0 -0 -0 0 0 0
-0 0 0 0 -0 0 -0 -0 0 0 -0 -0 -0 -0 0 0 0 -0 0 -0 0 0 0 0 -0 -0 0 0 0 -0 0 -0 0 0 0 0 -0 0 0 0 -0 0 0 0 -0
0 -0 -0 -0 0 -0 -0 -0 0 -0 -0 -0 -0 -0 -0 -0 0 0 0 0 0 0 0 0 0 0 0 0 0 0 0 0 0 0 0 0 0 0 0 0 0 0 0 0 0
0 0 0 0 0 -0 -0 0 0 0 -0 -0 -0 -0 -0 -0 0 -0 0 0 0 0 0 -0 -0 0 0 0 0 0 0 0 0 0 0 0 0 -0 0 0 0 0 0 0 0
0 0 0 -0 -0 0 0 0 0 0 0 0 -0 -0 -0 0 0 0 0 0 0 0 0 -0 0 -0 -0 -0 0 0 0 0 0 -0 0 0 0 -0 0 -0 0 0 0 0 0
0 -0 0 -0 -0 0 0 0 -0 -0 0 0 -0 0 -0 -0 0 -0 -0 0 0 0 0 0 0 0 -0 0 0 0 0 -0 0 0 0 0 0 0 0 0 0 0 0 0 0
0 -0 0 0 -0 -0 0 0 0 0 -0 0 0 0 0 0 0 0 -0 0 0 0 0 0 0 0 0 -0 0 0 0 -0 -0 0 0 0 0 0 0 0 0 0 1 1 1
0 0 0 0 0 0 0 0 -0 0 0 0 0 0 0 0 -0 0 0 -0 0 0 0 0 0 0 0 0 0 -0 -0 0 -0 -0 0 0 0 0 0 0 0 0 0 1 1
0 0 0 0 0 0 0 0 0 0 0 -0 0 0 0 0 0 0 -0 -0 0 -0 0 -0 -0 -0 -0 0 0 -0 -0 0 0 0 -0 0 0 0 0 0 0 0 0 1 1
0 0 0 0 0 0 0 0 0 0 0 0 0 0 0 0 0 0 0 0 0 0 0 0 -0 -0 -0 0 0 -0 0 -0 -0 -0 0 0 -0 -0 0 0 0 0 1 1 1
Wind_Speed_500mb
18 19 19 18 19 19 21 19 19 18 19 20 20 22 23 23 19 20 15 5 19 23 18 6 11 27 23 36 13 34 7 21 29 26 17 11 17 22 24 29 32 35 47 55 58
20 20 21 20 20 21 22 22 21 20 19 20 20 21 23 25 25 30 29 23 24 20 3 17 30 21 24 31 28 4 20 23 37 30 20 24 20 20 20 25 23 17 53 58 60
22 21 21 22 22 22 23 24 23 23 20 20 20 18 20 23 26 32 29 23 22 18 12 31 28 26 36 27 39 28 23 20 30 27 26 30 21 22 27 25 28 53 65 64 60
24 24 23 23 23 24 23 24 25 24 23 20 21 18 19 14 14 7 19 20 22 22 18 25 30 28 19 31 16 16 24 25 22 22 13 21 17 26 13 20 36 51 60 64 61
24 25 24 23 24 24 24 24 24 25 24 21 21 20 17 17 39 19 14 21 26 26 23 27 37 40 22 12 23 16 7 26 23 19 19 15 8 16 14 12 38 53 53 59 54
26 26 25 25 24 24 24 24 23 23 25 22 20 19 19 31 3 15 14 21 27 28 24 32 33 36 8 11 29 26 7 16 23 18 22 20 15 9 20 22 39 53 52 54 49
29 28 27 25 25 24 22 22 21 21 21 21 19 19 20 37 11 13 18 17 25 31 33 35 36 30 38 18 32 73 47 73 42 22 16 70 41 28 23 27 38 45 50 50 46
31 30 27 25 23 21 21 20 18 17 14 15 14 14 19 4 18 21 24 24 25 32 38 36 33 38 46 40 30 39 27 17 42 25 33 42 28 46 25 34 39 45 48 48 44
33 30 28 25 21 18 17 18 16 10 8 9 8 12 35 23 26 29 30 33 29 33 35 36 35 39 52 33 23 32 24 31 29 33 37 26 30 57 35 35 38 45 47 47 43
34 30 25 21 17 14 12 15 14 13 5 8 16 15 39 31 23 20 24 28 31 32 36 38 41 28 34 34 11 19 12 39 49 18 6 19 32 37 43 39 39 43 46 44 44
32 26 20 15 12 7 7 9 11 8 23 26 16 40 6 9 10 22 26 28 33 36 33 41 30 30 43 20 41 56 56 64 61 12 10 14 5 43 47 41 42 45 46 45 44
29 22 16 10 4 4 9 9 11 13 20 36 28 23 20 10 23 28 30 35 35 36 37 34 38 39 42 40 49 38 47 58 8 15 14 15 16 30 40 38 46 46 48 48 46
27 19 11 5 5 4 9 9 14 14 14 25 21 29 24 27 29 30 33 35 35 35 39 42 41 43 41 36 43 31 25 26 23 16 21 20 5 25 8 22 43 46 47 47 51
24 16 6 8 5 4 4 9 14 11 11 19 18 13 12 20 34 36 21 33 32 38 38 39 41 45 45 39 32 31 32 31 11 22 21 23 28 17 33 36 30 43 50 49 51
23 13 3 5 2 11 8 14 15 6 8 7 19 7 8 24 19 34 24 23 31 32 30 34 41 42 34 41 30 35 34 37 40 18 31 37 28 31 36 40 54 31 46 52 55
20 13 5 6 9 8 14 16 9 12 3 13 8 16 24 23 26 19 20 29 29 32 35 37 51 26 24 30 24 32 40 39 35 28 25 35 35 13 18 30 20 13 69 53 63
21 13 6 5 6 17 16 12 12 11 6 7 1 12 19 19 18 13 23 26 27 21 28 26 32 39 20 33 36 32 30 24 28 26 27 37 33 31 30 21 33 57 91 64 60
20 15 7 13 16 17 12 17 21 10 16 7 9 9 12 8 10 11 20 21 31 36 32 27 26 39 32 36 34 36 31 23 30 28 31 38 34 14 22 10 46 103 83 59 53
18 13 11 12 10 10 21 16 11 20 10 20 13 20 13 10 17 10 13 27 15 27 20 28 34 34 14 21 22 27 31 39 43 38 28 32 43 18 29 40 96 6 41 35 46
22 18 20 9 8 11 18 10 9 11 16 14 25 9 26 15 14 10 14 13 13 14 18 26 28 28 28 10 20 31 33 30 23 35 34 31 37 29 23 28 22 17 19 37 20
26 14 4 4 9 23 18 10 5 8 16 15 17 13 13 14 15 26 15 16 13 22 28 25 25 26 26 28 21 25 27 28 32 27 25 22 24 31 24 8 16 12 35 23 20
24 11 5 7 25 16 10 14 5 8 4 11 10 16 18 15 19 17 9 16 14 23 25 29 18 21 35 29 22 32 32 33 22 33 29 29 31 36 14 7 7 18 17 21 20
19 11 1 11 14 5 11 9 13 14 4 7 8 3 16 17 9 20 16 12 7 18 22 24 17 20 22 12 37 23 29 38 37 33 29 25 25 25 17 13 21 17 10 29 20
16 8 10 7 11 20 5 7 7 10 19 11 19 14 18 16 15 8 22 9 11 7 12 10 26 32 27 42 27 20 33 36 38 20 27 28 30 29 31 28 24 20 23 18 12
9 13 14 12 15 24 18 20 18 9 9 5 12 11 14 17 25 24 22 18 12 21 9 17 25 30 33 35 36 39 34 41 40 36 32 37 37 32 32 32 17 22 20 18 15
17 14 26 31 21 12 9 18 11 15 8 20 4 20 16 17 23 27 31 28 27 25 26 27 26 26 30 35 37 36 35 38 42 46 46 40 41 33 34 36 13 11 14 22 23
27 14 19 23 22 15 10 22 14 17 21 17 20 20 20 22 29 35 41 46 39 35 32 32 25 24 30 34 34 30 33 33 37 35 43 35 41 30 11 13 10 10 7 11 19
Wind_Direction_500mb
325 320 315 311 306 306 309 310 314 317 320 323 323 322 314 301 289 281 280 172 280 300 326 341 265 245 238 240 251 247 327 72 80 101 129 143 120 76 86 127 151 169 154 158 157
321 317 314 310 304 300 300 302 304 309 314 316 320 322 317 307 292 270 257 265 282 292 254 226 252 254 263 292 254 53 62 28 106 117 130 136 128 118 135 149 140 158 139 153 159
318 314 310 307 303 298 295 296 296 302 307 310 312 316 316 313 300 251 233 245 267 284 229 284 298 279 288 230 26 358 103 82 68 109 110 112 141 155 161 156 166 138 148 158 165
318 314 309 304 301 298 295 291 291 294 299 304 305 306 304 294 250 220 203 226 257 271 258 289 275 263 347 42 62 359 79 93 114 113 133 115 150 160 173 125 145 152 158 162 171
320 313 308 303 299 296 294 291 288 289 289 293 298 303 304 265 257 264 261 236 241 259 250 282 295 296 106 141 32 269 190 108 118 151 112 136 64 114 110 141 147 156 164 169 175
325 317 308 301 296 293 293 294 292 286 285 285 287 294 296 261 298 255 250 247 236 251 256 270 278 313 274 202 197 238 61 102 162 134 140 97 7 210 138 171 154 163 172 176 180
327 320 311 304 298 295 293 292 294 290 282 279 277 288 274 249 264 234 233 247 241 235 256 270 303 305 305 170 213 74 32 351 314 174 67 62 341 316 151 178 160 172 177 180 185
329 322 315 308 301 295 292 292 293 292 280 269 265 274 263 301 231 240 236 239 243 248 259 271 291 301 284 194 239 79 107 168 272 258 123 91 269 270 177 175 170 174 180 184 187
330 323 316 311 306 296 293 295 291 284 288 245 222 256 265 227 243 237 233 241 251 250 255 267 274 282 287 273 58 43 320 278 274 240 166 161 208 245 173 183 176 179 183 187 188
330 325 319 315 307 297 301 296 277 257 257 216 227 261 244 236 232 211 223 237 249 260 244 247 257 265 264 261 137 131 322 295 274 148 210 213 165 162 177 180 183 185 185 190 190
334 329 325 316 310 322 349 305 294 226 212 219 260 219 117 248 266 234 233 232 238 253 252 243 245 251 260 283 143 165 186 226 253 136 229 319 241 165 174 184 185 186 191 190 196
340 334 331 324 334 113 8 325 20 328 299 227 250 256 277 263 279 226 214 221 223 239 247 250 248 246 268 277 160 173 231 234 43 15 240 275 291 133 166 190 192 193 189 192 192
351 346 348 10 106 165 9 329 333 324 263 195 224 229 233 223 249 248 202 223 237 229 244 251 250 251 245 281 278 288 288 304 330 335 288 321 229 194 6 216 202 193 194 196 190
356 356 17 112 60 347 247 324 333 322 273 141 192 170 216 232 241 246 192 227 225 251 231 250 262 263 275 245 278 287 295 301 354 302 293 282 289 103 157 253 193 204 190 195 197
359 3 14 294 199 310 301 324 319 271 248 147 125 140 209 225 30 202 212 247 257 248 250 262 246 261 267 271 284 286 286 291 302 278 297 290 287 143 129 108 262 211 202 196 193
4 9 29 20 330 332 321 312 292 237 81 126 159 196 198 204 242 118 212 231 262 254 275 259 270 298 283 281 294 281 280 289 291 284 276 276 278 199 151 176 143 205 231 220 192
3 359 338 226 340 313 323 295 237 269 189 96 101 220 243 157 208 212 201 220 231 224 246 246 251 267 263 285 278 275 264 263 256 256 256 258 255 268 152 173 181 193 218 221 192
343 343 323 310 271 314 311 263 269 13 36 107 267 235 320 359 197 212 222 221 217 256 272 285 246 221 205 227 259 271 257 255 260 260 269 274 272 338 136 13 296 195 209 176 182
323 296 304 339 311 290 288 260 2 10 3 332 217 244 152 178 298 210 249 19 31 12 339 312 288 307 252 217 216 253 259 279 286 285 274 282 292 206 94 72 296 306 165 166 177
317 279 249 264 250 278 272 324 43 350 295 277 313 353 331 89 273 258 138 76 13 39 326 295 297 296 308 278 244 272 289 288 269 262 271 286 292 299 145 188 236 194 120 133 147
311 253 85 223 270 259 268 56 17 74 324 326 350 322 299 340 315 325 70 101 58 337 326 301 291 289 273 251 270 251 225 244 269 280 290 286 258 248 42 78 347 66 67 101 133
300 276 108 259 270 246 41 12 7 17 162 317 280 325 328 354 311 326 347 58 56 344 312 338 321 300 299 308 271 233 259 271 248 239 261 278 289 301 4 314 110 289 63 85 22
299 335 83 275 286 259 92 170 305 338 8 340 324 300 1 308 338 286 299 47 33 317 20 349 309 319 296 29 348 354 347 332 283 294 287 282 273 288 341 29 14 356 19 107 97
294 295 155 243 310 303 6 271 253 135 296 323 329 318 286 285 267 257 294 286 151 274 90 308 277 280 285 307 319 317 304 305 315 289 288 281 294 314 330 355 16 68 75 59 60
293 18 356 305 37 344 335 335 301 287 160 303 299 242 334 327 314 307 325 314 331 127 274 269 273 277 295 309 308 301 293 287 288 294 296 299 305 305 314 328 48 35 19 22 6
354 350 342 302 298 273 235 287 306 327 9 293 301 312 7 313 311 315 322 313 305 310 302 278 282 297 292 283 271 270 269 272 282 285 284 280 281 284 285 291 57 2 18 17 351
355 330 298 296 287 292 12 7 351 355 300 272 330 326 306 338 337 309 297 289 284 282 279 286 287 291 287 294 297 287 281 275 282 258 263 275 279 328 256 286 343 320 54 31 338
Wind_Speed_850mb
18 19 19 18 19 19 21 19 19 18 19 20 20 22 23 23 19 20 15 5 19 23 18 6 11 27 23 36 13 34 7 21 29 26 17 11 17 22 24 29 32 35 47 55 58
20 20 21 20 20 21 22 22 21 20 19 20 20 21 23 25 25 30 29 23 24 20 3 17 30 21 24 31 28 4 20 23 37 30 20 24 20 20 20 25 23 17 53 58 60
22 21 21 22 22 22 23 24 23 23 20 20 20 18 20 23 26 32 29 23 22 18 12 31 28 26 36 27 39 28 23 20 30 27 26 30 21 22 27 25 28 53 65 64 60
24 24 23 23 23 24 23 24 25 24 23 20 21 18 19 14 14 7 19 20 22 22 18 25 30 28 19 31 16 16 24 25 22 22 13 21 17 26 13 20 36 51 60 64 61
24 25 24 23 24 24 24 24 24 25 24 21 21 20 17 17 39 19 14 21 26 26 23 27 37 40 22 12 23 16 7 26 23 19 19 15 8 16 14 12 38 53 53 59 54
26 26 25 25 24 24 24 24 23 23 25 22 20 19 19 31 3 15 14 21 27 28 24 32 33 36 8 11 29 26 7 16 23 18 22 20 15 9 20 22 39 53 52 54 49
29 28 27 25 25 24 22 22 21 21 21 21 19 19 20 37 11 13 18 17 25 31 33 35 36 30 38 18 32 73 47 73 42 22 16 70 41 28 23 27 38 45 50 50 46
31 30 27 25 23 21 21 20 18 17 14 15 14 14 19 4 18 21 24 24 25 32 38 36 33 38 46 40 30 39 27 17 42 25 33 42 28 46 25 34 39 45 48 48 44
33 30 28 25 21 18 17 18 16 10 8 9 8 12 35 23 26 29 30 33 29 33 35 36 35 39 52 33 23 32 24 31 29 33 37 26 30 57 35 35 38 45 47 47 43
34 30 25 21 17 14 12 15 14 13 5 8 16 15 39 31 23 20 24 28 31 32 36 38 41 28 34 34 11 19 12 39 49 18 6 19 32 37 43 39 39 43 46 44 44
32 26 20 15 12 7 7 9 11 8 23 26 16 40 6 9 10 22 26 28 33 36 33 41 30 30 43 20 41 56 56 64 61 12 10 14 5 43 47 41 42 45 46 45 44
29 22 16 10 4 4 9 9 11 13 20 36 28 23 20 10 23 28 30 35 35 36 37 34 38 39 42 40 49 38 47 58 8 15 14 15 16 30 40 38 46 46 48 48 46
27 19 11 5 5 4 9 9 14 14 14 25 21 29 24 27 29 30 33 35 35 35 39 42 41 43 41 36 43 31 25 26 23 16 21 20 5 25 8 22 43 46 47 47 51
24 16 6 8 5 4 4 9 14 11 11 19 18 13 12 20 34 36 21 33 32 38 38 39 41 45 45 39 32 31 32 31 11 22 21 23 28 17 33 36 30 43 50 49 51
23 13 3 5 2 11 8 14 15 6 8 7 19 7 8 24 19 34 24 23 31 32 30 34 41 42 34 41 30 35 34 37 40 18 31 37 28 31 36 40 54 31 46 52 55
20 13 5 6 9 8 14 16 9 12 3 13 8 16 24 23 26 19 20 29 29 32 35 37 51 26 24 30 24 32 40 39 35 28 25 35 35 13 18 30 20 13 69 53 63
21 13 6 5 6 17 16 12 12 11 6 7 1 12 19 19 18 13 23 26 27 21 28 26 32 39 20 33 36 32 30 24 28 26 27 37 33 31 30 21 33 57 91 64 60
20 15 7 13 16 17 12 17 21 10 16 7 9 9 12 8 10 11 20 21 31 36 32 27 26 39 32 36 34 36 31 23 30 28 31 38 34 14 22 10 46 103 83 59 53
18 13 11 12 10 10 21 16 11 20 10 20 13 20 13 10 17 10 13 27 15 27 20 28 34 34 14 21 22 27 31 39 43 38 28 32 43 18 29 40 96 6 41 35 46
22 18 20 9 8 11 18 10 9 11 16 14 25 9 26 15 14 10 14 13 13 14 18 26 28 28 28 10 20 31 33 30 23 35 34 31 37 29 23 28 22 17 19 37 20
26 14 4 4 9 23 18 10 5 8 16 15 17 13 13 14 15 26 15 16 13 22 28 25 25 26 26 28 21 25 27 28 32 27 25 22 24 31 24 8 16 12 35 23 20
24 11 5 7 25 16 10 14 5 8 4 11 10 16 18 15 19 17 9 16 14 23 25 29 18 21 35 29 22 32 32 33 22 33 29 29 31 36 14 7 7 18 17 21 20
19 11 1 11 14 5 11 9 13 14 4 7 8 3 16 17 9 20 16 12 7 18 22 24 17 20 22 12 37 23 29 38 37 33 29 25 25 25 17 13 21 17 10 29 20
16 8 10 7 11 20 5 7 7 10 19 11 19 14 18 16 15 8 22 9 11 7 12 10 26 32 27 42 27 20 33 36 38 20 27 28 30 29 31 28 24 20 23 18 12
9 13 14 12 15 24 18 20 18 9 9 5 12 11 14 17 25 24 22 18 12 21 9 17 25 30 33 35 36 39 34 41 40 36 32 37 37 32 32 32 17 22 20 18 15
17 14 26 31 21 12 9 18 11 15 8 20 4 20 16 17 23 27 31 28 27 25 26 27 26 26 30 35 37 36 35 38 42 46 46 40 41 33 34 36 13 11 14 22 23
27 14 19 23 22 15 10 22 14 17 21 17 20 20 20 22 29 35 41 46 39 35 32 32 25 24 30 34 34 30 33 33 37 35 43 35 41 30 11 13 10 10 7 11 19
Wind_Direction_850mb
325 320 315 311 306 306 309 310 314 317 320 323 323 322 314 301 289 281 280 172 280 300 326 341 265 245 238 240 251 247 327 72 80 101 129 143 120 76 86 127 151 169 154 158 157
321 317 314 310 304 300 300 302 304 309 314 316 320 322 317 307 292 270 257 265 282 292 254 226 252 254 263 292 254 53 62 28 106 117 130 136 128 118 135 149 140 158 139 153 159
318 314 310 307 303 298 295 296 296 302 307 310 312 316 316 313 300 251 233 245 267 284 229 284 298 279 288 230 26 358 103 82 68 109 110 112 141 155 161 156 166 138 148 158 165
318 314 309 304 301 298 295 291 291 294 299 304 305 306 304 294 250 220 203 226 257 271 258 289 275 263 347 42 62 359 79 93 114 113 133 115 150 160 173 125 145 152 158 162 171
320 313 308 303 299 296 294 291 288 289 289 293 298 303 304 265 257 264 261 236 241 259 250 282 295 296 106 141 32 269 190 108 118 151 112 136 64 114 110 141 147 156 164 169 175
325 317 308 301 296 293 293 294 292 286 285 285 287 294 296 261 298 255 250 247 236 251 256 270 278 313 274 202 197 238 61 102 162 134 140 97 7 210 138 171 154 163 172 176 180
327 320 311 304 298 295 293 292 294 290 282 279 277 288 274 249 264 234 233 247 241 235 256 270 303 305 305 170 213 74 32 351 314 174 67 62 341 316 151 178 160 172 177 180 185
329 322 315 308 301 295 292 292 293 292 280 269 265 274 263 301 231 240 236 239 243 248 259 271 291 301 284 194 239 79 107 168 272 258 123 91 269 270 177 175 170 174 180 184 187
330 323 316 311 306 296 293 295 291 284 288 245 222 256 265 227 243 237 233 241 251 250 255 267 274 282 287 273 58 43 320 278 274 240 166 161 208 245 173 183 176 179 183 187 188
330 325 319 315 307 297 301 296 277 257 257 216 227 261 244 236 232 211 223 237 249 260 244 247 257 265 264 261 137 131 322 295 274 148 210 213 165 162 177 180 183 185 185 190 190
334 329 325 316 310 322 349 305 294 226 212 219 260 219 117 248 266 234 233 232 238 253 252 243 245 251 260 283 143 165 186 226 253 136 229 319 241 165 174 184 185 186 191 190 196
340 334 331 324 334 113 8 325 20 328 299 227 250 256 277 263 279 226 214 221 223 239 247 250 248 246 268 277 160 173 231 234 43 15 240 275 291 133 166 190 192 193 189 192 192
351 346 348 10 106 165 9 329 333 324 263 195 224 229 233 223 249 248 202 223 237 229 244 251 250 251 245 281 278 288 288 304 330 335 288 321 229 194 6 216 202 193 194 196 190
356 356 17 112 60 347 247 324 333 322 273 141 192 170 216 232 241 246 192 227 225 251 231 250 262 263 275 245 278 287 295 301 354 302 293 282 289 103 157 253 193 204 190 195 197
359 3 14 294 199 310 301 324 319 271 248 147 125 140 209 225 30 202 212 247 257 248 250 262 246 261 267 271 284 286 286 291 302 278 297 290 287 143 129 108 262 211 202 196 193
4 9 29 20 330 332 321 312 292 237 81 126 159 196 198 204 242 118 212 231 262 254 275 259 270 298 283 281 294 281 280 289 291 284 276 276 278 199 151 176 143 205 231 220 192
3 359 338 226 340 313 323 295 237 269 189 96 101 220 243 157 208 212 201 220 231 224 246 246 251 267 263 285 278 275 264 263 256 256 256 258 255 268 152 173 181 193 218 221 192
343 343 323 310 271 314 311 263 269 13 36 107 267 235 320 359 197 212 222 221 217 256 272 285 246 221 205 227 259 271 257 255 260 260 269 274 272 338 136 13 296 195 209 176 182
323 296 304 339 311 290 288 260 2 10 3 332 217 244 152 178 298 210 249 19 31 12 339 312 288 307 252 217 216 253 259 279 286 285 274 282 292 206 94 72 296 306 165 166 177
317 279 249 264 250 278 272 324 43 350 295 277 313 353 331 89 273 258 138 76 13 39 326 295 297 296 308 278 244 272 289 288 269 262 271 286 292 299 145 188 236 194 120 133 147
311 253 85 223 270 259 268 56 17 74 324 326 350 322 299 340 315 325 70 101 58 337 326 301 291 289 273 251 270 251 225 244 269 280 290 286 258 248 42 78 347 66 67 101 133
300 276 108 259 270 246 41 12 7 17 162 317 280 325 328 354 311 326 347 58 56 344 312 338 321 300 299 308 271 233 259 271 248 239 261 278 289 301 4 314 110 289 63 85 22
299 335 83 275 286 259 92 170 305 338 8 340 324 300 1 308 338 286 299 47 33 317 20 349 309 319 296 29 348 354 347 332 283 294 287 282 273 288 341 29 14 356 19 107 97
294 295 155 243 310 303 6 271 253 135 296 323 329 318 286 285 267 257 294 286 151 274 90 308 277 280 285 307 319 317 304 305 315 289 288 281 294 314 330 355 16 68 75 59 60
293 18 356 305 37 344 335 335 301 287 160 303 299 242 334 327 314 307 325 314 331 127 274 269 273 277 295 309 308 301 293 287 288 294 296 299 305 305 314 328 48 35 19 22 6
354 350 342 302 298 273 235 287 306 327 9 293 301 312 7 313 311 315 322 313 305 310 302 278 282 297 292 283 271 270 269 272 282 285 284 280 281 284 285 291 57 2 18 17 351
355 330 298 296 287 292 12 7 351 355 300 272 330 326 306 338 337 309 297 289 284 282 279 286 287 291 287 294 297 287 281 275 282 258 263 275 279 328 256 286 343 320 54 31 338